Terminal Aerodrome Forecast
Issued by NWS

Home | Current Version | Previous Version | Text Only | Print | Product List | Glossary On
Versions: 1 2 3 4 5 6 7 8 9 10 11 12 13 14 15 16 17 18 19 20 21 22
000
FTUS41 KOKX 281300 AAA
TAFHPN
TAF AMD
KHPN 281317Z 2813/2912 19006KT P6SM BKN025
      TEMPO 2813/2815 BKN008
     FM281500 23006KT P6SM SCT025
     FM281700 24009G16KT P6SM SCT035
     FM282100 27011G18KT P6SM VCSH SCT050
     FM290200 30010G17KT P6SM FEW050
     FM290800 30008KT P6SM SKC
      AMD NOT SKED=

USA.gov is the U.S. government's official web portal to all federal, state and local government web resources and services.